[[{"header":{"parameterUnit":"m.s-1","parameterCategory":1,"la1":30.2991,"la2":30.254,"lo1":-89.0895,"lo2":-89.0444,"dy":0.0017,"dx":0.0017,"nx":28,"ny":28,"refTime":"2025-02-23T03:00:00:Z","depth":0,"parameterNumber":2,"parameterNumberName":"U-component_of_WINDS"},"data":[0,0,0,0,0,0,0,0,0,0,0,0,0,0,0,0,0,0,0,0,0,0,0,0,0,0,0,0,0,0,0,0,0,0,0,0,0,0,0,0,0,0,0,0,0,0,0,0,0,0,0,0,0,0,0,0,0,0,-6.6166,-6.6167,0,-6.6232,-6.6233,-6.6234,-6.604,-6.6034,-6.6029,-6.6023,-6.6094,-6.6101,-6.6108,0,0,0,0,0,0,0,0,0,0,0,0,0,-6.5877,-6.5883,-6.6166,-6.6167,-6.6168,-6.6232,-6.6233,-6.6234,-6.6041,-6.6034,-6.6027,-6.602,-6.6091,-6.61,-6.6109,0,0,0,0,0,0,0,0,0,0,0,0,0,-6.5979,-6.5885,-6.6166,-6.608,-6.6072,-6.6232,-6.6233,-6.6234,-6.6043,-6.6034,-6.6025,-6.6017,-6.6088,-6.6099,-6.611,-6.6357,0,0,-6.6144,-6.6149,0,0,0,0,0,0,0,0,-6.5973,-6.599,-6.6092,-6.6086,-6.6078,-6.6119,-6.6156,-6.6275,-6.6045,-6.6054,-6.6023,-6.6012,-6.611,-6.6118,-6.615,-6.6361,-6.6364,-6.6145,-6.6152,-6.6157,-6.616,0,0,0,0,0,0,0,-6.5967,-6.5986,-6.6192,-6.6093,-6.6085,-6.6038,-6.6043,-6.6178,-6.6131,-6.6053,-6.6039,-6.6049,-6.6104,-6.614,-6.6151,-6.6365,-6.6145,-6.6155,-6.6162,-6.6166,-6.6781,-6.679,0,0,0,0,0,0,-6.597,-6.5981,-6.619,-6.6194,-6.6003,-6.6051,-6.6056,-6.6115,-6.6129,-6.6123,-6.6057,-6.604,-6.6125,-6.6138,-6.6152,-6.6442,-6.6157,-6.6167,-6.6173,-6.6771,-6.6783,-6.6793,0,0,0,0,0,0,-6.5965,-6.5991,-6.6187,-6.6084,-6.6105,-6.6065,-6.6133,-6.6121,-6.6156,-6.6132,-6.6123,-6.6102,-6.6119,-6.6137,-6.6307,-6.6442,-6.6172,-6.6182,-6.676,-6.6775,-6.6788,-6.7025,0,0,0,0,0,0,-6.5957,-6.599,-6.6083,-6.6088,-6.6112,-6.6342,-6.6141,-6.6129,-6.6176,-6.6154,-6.6172,-6.6166,-6.6113,-6.6292,-6.6319,-6.6453,-6.6191,-6.6747,-6.6766,-6.6783,-6.7005,-6.7046,-6.7081,0,0,0,0,0,-6.5948,-6.6148,-6.6089,-6.6115,-6.6227,-6.635,-6.6364,-6.6297,-6.6187,-6.6281,-6.6265,-6.6166,-6.6423,-6.6311,-6.6339,-6.6479,-6.6739,-6.6761,-6.6782,-6.6988,-6.7038,-6.708,0,0,0,0,0,0,-6.6161,-6.6147,-6.6081,-6.6288,-6.6322,-6.6317,-6.6433,-6.6352,-6.6418,-6.6396,-6.6311,-6.6317,-6.6504,-6.6508,-6.6383,-6.6719,-6.6562,-6.6591,-6.6709,-6.6756,-6.6794,-6.6789,-6.62,0,0,0,0,0,-6.6232,-6.6332,-6.6314,-6.6499,-6.6519,-6.6474,-6.6525,-6.6471,-6.6502,-6.6516,-6.6512,-6.6548,-6.6636,-6.6696,-6.6776,-6.7005,-6.7006,-6.7115,-6.7153,-6.7184,-6.721,-6.7331,-6.7379,-6.6865,-6.6864,-6.6864,0,0,-6.6381,-6.6385,-6.6453,-6.6542,-6.6562,-6.6668,-6.6487,-6.6607,-6.6685,-6.6534,-6.6695,-6.6694,-6.6728,-6.6929,-6.7017,-6.6938,-6.7352,-6.7211,-6.7237,-6.7245,-6.7358,-6.7407,-6.7451,-6.6879,-6.6877,-6.6874,0,0,-6.6705,-6.6718,-6.6873,-6.6896,-6.6927,-6.6896,-6.6934,-6.6941,-6.6934,-6.7094,-6.6983,-6.7075,-6.7229,-6.7258,-6.7293,-6.7628,-6.754,-6.7657,-6.7855,-6.7975,-6.8015,-6.8051,-6.8171,-6.8215,-6.7682,-6.7683,-6.7683,0,-6.6885,-6.704,-6.6964,-6.7092,-6.7134,-6.7001,-6.7158,-6.7184,-6.7241,-6.7274,-6.7185,-6.7375,-6.7388,-6.7594,-6.7676,-6.7709,-6.775,-6.7655,-6.8015,-6.805,-6.8082,-6.8196,-6.8241,-6.7697,-6.7695,-6.7694,-6.7693,0,-6.7261,-6.737,-6.7492,-6.7549,-6.7605,-6.7748,-6.7694,-6.776,-6.7701,-6.7679,-6.7844,-6.7855,-6.7935,-6.798,-6.7924,-6.8179,-6.8129,-6.8029,-6.787,-6.8147,-6.8252,-6.8295,-6.7717,-6.7712,-6.7708,-6.7704,0,0,-6.7722,-6.7735,-6.7781,-6.7805,-6.783,-6.7913,-6.805,-6.8127,-6.8186,-6.8229,-6.8342,-6.8475,-6.8383,-6.8423,-6.8369,-6.8474,-6.8739,-6.836,-6.836,-6.8431,-6.9021,-6.9097,-6.9148,-6.868,-6.8688,-6.8695,-6.9018,0,-6.8042,-6.8275,-6.821,-6.8443,-6.8543,-6.8418,-6.8537,-6.8566,-6.8549,-6.8632,-6.8613,-6.871,-6.858,-6.8603,-6.8701,-6.8687,-6.8857,-6.8662,-6.8786,-6.8791,-6.8782,-6.9203,-6.9284,-6.9589,-6.9059,-6.9066,-6.9071,0,-6.8446,-6.8505,-6.8748,-6.8756,-6.8795,-6.8904,-6.8969,-6.905,-6.908,-6.906,-6.9105,-6.903,-6.9165,-6.9005,-6.919,-6.9059,-6.9106,-6.9107,-6.9117,-6.9126,-6.8949,-6.9225,-6.9684,-6.9731,-6.9135,-6.913,-6.9125,0,-6.876,-6.8899,-6.9062,-6.9087,-6.91,-6.9179,-6.9188,-6.9209,-6.926,-6.9318,-6.935,-6.9423,-6.9464,-6.9523,-6.947,-6.9358,-6.9664,-6.9499,-6.9652,-6.9654,-6.9723,-6.972,-7.0197,-6.9753,-6.9752,-6.9751,-6.975,0,-6.9124,-6.9278,-6.9203,-6.9304,-6.9473,-6.9397,-6.9567,-6.9561,-6.9581,-6.968,-6.9576,-6.967,-6.9594,-6.9682,-6.9642,-6.9802,-6.9821,-6.981,-6.9797,-6.982,-6.9821,-6.985,-6.9827,-6.9763,-6.9761,-6.9758,-6.9756,0,-6.9503,-6.9458,-6.9628,-6.9627,-6.963,-6.9755,-6.9753,-6.9847,-6.9822,-6.9948,-6.9973,-6.9935,-7.0034,-6.9986,-7.0089,-7.0062,-7.0269,-7.0227,-7.0259,-7.0248,-7.0404,-7.0391,-7.0917,-7.0983,-7.0496,-7.0501,-7.0505,0,-6.9738,-6.9854,-6.9864,-6.9922,-6.9938,-7.0033,-7.0083,-7.0014,-7.0071,-7.0114,-7.0203,-7.0292,-7.0359,-7.0523,-7.0505,-7.0584,-7.0544,-7.0723,-7.0555,-7.0574,-7.0547,-7.0542,-7.0553,-7.0757,-7.0763,-7.0768,-7.0771,0,-7.0162,-7.0134,-7.0211,-7.0281,-7.0345,-7.0397,-7.044,-7.0493,-7.0424,-7.0494,-7.0593,-7.0646,-7.075,-7.0841,-7.0909,-7.0919,-7.0836,-7.0824,-7.0864,-7.0888,-7.0902,-7.0897,-7.0351,-7.0813,-7.0808,-7.0805,-7.0803,-7.0802,-7.0476,-7.0573,-7.0596,-7.0685,-7.071,-7.0752,-7.084,-7.0826,-7.0907,-7.0986,-7.094,-7.1056,-7.1083,-7.1166,-7.1188,-7.1278,-7.1207,-7.1264,-7.1279,-7.1295,-7.1316,-7.0887,-7.129,-7.1289,-7.1288,-7.1286,-7.1286,0,-7.0895,-7.0903,-7.0986,-7.1049,-7.112,-7.1033,-7.1076,-7.1141,-7.1244,-7.1276,-7.1344,-7.1458,-7.1545,-7.1535,-7.1614,-7.1689,-7.1652,-7.1712,-7.1706,-7.171,-7.1374,-7.1332,-7.174,-7.174,-7.174,-7.174,-7.174,-7.174,-7.1121,-7.128,-7.1255,-7.1426,-7.1433,-7.1545,-7.1577,-7.1617,-7.1641,-7.1773,-7.1845,-7.1836,-7.1851,-7.1931,-7.2007,-7.2002,-7.2036,-7.2111,-7.2092,-7.1779,-7.1734,-7.1691,-7.1651,-7.2119,-7.212,-7.242,-7.2423,-7.2425]},{"header":{"parameterUnit":"m.s-1","parameterCategory":1,"la1":30.2991,"la2":30.254,"lo1":-89.0895,"lo2":-89.0444,"dy":0.0017,"dx":0.0017,"nx":28,"ny":28,"refTime":"2025-02-23T03:00:00:Z","depth":0,"parameterNumber":3,"parameterNumberName":"V-component_of_WINDS"},"data":[0,0,0,0,0,0,0,0,0,0,0,0,0,0,0,0,0,0,0,0,0,0,0,0,0,0,0,0,0,0,0,0,0,0,0,0,0,0,0,0,0,0,0,0,0,0,0,0,0,0,0,0,0,0,0,0,0,0,-0.9765,-0.9764,0,-0.9658,-0.9657,-0.9656,-0.9599,-0.9599,-0.9599,-0.9599,-0.9489,-0.9487,-0.9484,0,0,0,0,0,0,0,0,0,0,0,0,0,-0.9917,-0.9915,-0.9765,-0.9764,-0.9762,-0.9659,-0.9657,-0.9656,-0.9599,-0.9599,-0.9599,-0.9599,-0.949,-0.9487,-0.9484,0,0,0,0,0,0,0,0,0,0,0,0,0,-0.9835,-0.9914,-0.9765,-0.9722,-0.9717,-0.9659,-0.9657,-0.9655,-0.9599,-0.9599,-0.9599,-0.9599,-0.9491,-0.9487,-0.9483,-0.9461,0,0,-0.947,-0.9469,0,0,0,0,0,0,0,0,-0.984,-0.983,-0.9729,-0.9725,-0.9719,-0.9642,-0.9671,-0.959,-0.9599,-0.9644,-0.9599,-0.9599,-0.954,-0.9532,-0.9512,-0.9455,-0.9451,-0.947,-0.9467,-0.9466,-0.9464,0,0,0,0,0,0,0,-0.9846,-0.9834,-0.9723,-0.9728,-0.9722,-0.9707,-0.9695,-0.9655,-0.9594,-0.964,-0.9636,-0.9624,-0.9537,-0.9517,-0.9509,-0.9449,-0.947,-0.9466,-0.9464,-0.9462,-0.9365,-0.9365,0,0,0,0,0,0,-0.9858,-0.9839,-0.9726,-0.972,-0.978,-0.9704,-0.9691,-0.9667,-0.9595,-0.9583,-0.9624,-0.9621,-0.9524,-0.9514,-0.9505,-0.9472,-0.9466,-0.9462,-0.9459,-0.9365,-0.9365,-0.9365,0,0,0,0,0,0,-0.9862,-0.9849,-0.9731,-0.9778,-0.9762,-0.9702,-0.9675,-0.9665,-0.9644,-0.9582,-0.9571,-0.9614,-0.9523,-0.9511,-0.9471,-0.9467,-0.946,-0.9456,-0.9365,-0.9365,-0.9365,-0.9406,0,0,0,0,0,0,-0.9867,-0.9851,-0.9842,-0.9778,-0.9759,-0.9699,-0.9675,-0.9663,-0.9637,-0.9633,-0.957,-0.956,-0.9522,-0.9478,-0.9467,-0.9461,-0.9453,-0.9365,-0.9365,-0.9365,-0.9405,-0.9408,-0.941,0,0,0,0,0,-0.9872,-0.9859,-0.9842,-0.9829,-0.9748,-0.9699,-0.9688,-0.9646,-0.9637,-0.9627,-0.9587,-0.9562,-0.947,-0.9474,-0.9462,-0.9455,-0.9365,-0.9365,-0.9365,-0.9404,-0.9407,-0.941,0,0,0,0,0,0,-0.9925,-0.985,-0.983,-0.9796,-0.9754,-0.969,-0.9676,-0.9651,-0.9611,-0.9609,-0.9557,-0.9543,-0.9508,-0.9477,-0.9484,-0.9427,-0.9414,-0.9412,-0.9449,-0.9451,-0.9454,-0.9461,-0.9449,0,0,0,0,0,-0.9932,-0.9899,-0.9836,-0.9811,-0.9791,-0.9738,-0.9715,-0.9685,-0.964,-0.9622,-0.9579,-0.9536,-0.9497,-0.9472,-0.9433,-0.94,-0.9385,-0.9389,-0.9391,-0.9394,-0.9392,-0.9369,-0.937,-0.9364,-0.9364,-0.9364,0,0,-0.9947,-0.9902,-0.9885,-0.9821,-0.9785,-0.9751,-0.9723,-0.9689,-0.9663,-0.9617,-0.9576,-0.9543,-0.9491,-0.9454,-0.9435,-0.9427,-0.939,-0.9393,-0.9396,-0.9392,-0.9369,-0.937,-0.937,-0.9364,-0.9364,-0.9364,0,0,-0.9957,-0.9921,-0.9895,-0.986,-0.9805,-0.9769,-0.9763,-0.9701,-0.9677,-0.9635,-0.9599,-0.9567,-0.9502,-0.9465,-0.9438,-0.9431,-0.9406,-0.942,-0.9433,-0.9412,-0.9412,-0.9412,-0.9408,-0.9407,-0.9419,-0.9419,-0.9419,0,-0.9983,-0.9931,-0.9886,-0.9853,-0.9824,-0.978,-0.9753,-0.972,-0.9656,-0.9637,-0.9629,-0.9544,-0.9506,-0.9458,-0.9456,-0.9437,-0.9427,-0.9427,-0.9416,-0.9415,-0.9415,-0.941,-0.9409,-0.9421,-0.9421,-0.942,-0.942,0,-0.9964,-0.9929,-0.9915,-0.9853,-0.9823,-0.9793,-0.9742,-0.9717,-0.9689,-0.9653,-0.961,-0.9562,-0.9512,-0.9498,-0.9472,-0.9446,-0.9442,-0.9426,-0.9412,-0.9418,-0.9413,-0.9411,-0.9424,-0.9423,-0.9422,-0.9422,0,0,-1.0006,-0.9917,-0.9913,-0.9883,-0.9818,-0.979,-0.9757,-0.9706,-0.9685,-0.9642,-0.9612,-0.9556,-0.9539,-0.9509,-0.9477,-0.9459,-0.9453,-0.9444,-0.9442,-0.9446,-0.942,-0.9432,-0.9431,-0.9436,-0.9436,-0.9435,-0.9423,0,-1.0006,-0.9945,-0.9902,-0.9857,-0.9822,-0.9778,-0.9749,-0.9706,-0.9671,-0.9636,-0.9597,-0.9558,-0.954,-0.952,-0.95,-0.9459,-0.9447,-0.9459,-0.9406,-0.9405,-0.942,-0.9428,-0.9441,-0.9433,-0.9421,-0.9421,-0.9421,0,-0.9998,-0.9955,-0.9907,-0.9843,-0.9827,-0.9802,-0.9751,-0.9718,-0.9667,-0.9643,-0.9607,-0.9574,-0.9536,-0.9526,-0.9471,-0.948,-0.9456,-0.9432,-0.943,-0.9423,-0.9413,-0.942,-0.9429,-0.9427,-0.9417,-0.9417,-0.9418,0,-1.0031,-0.9961,-0.9922,-0.9898,-0.9824,-0.9807,-0.9775,-0.9724,-0.9695,-0.9651,-0.9631,-0.9583,-0.9556,-0.9519,-0.9473,-0.947,-0.9423,-0.9409,-0.9401,-0.9402,-0.9392,-0.9394,-0.9397,-0.9379,-0.9379,-0.9379,-0.9379,0,-1.0035,-1.0007,-0.9936,-0.9912,-0.9878,-0.9828,-0.9796,-0.976,-0.9714,-0.9682,-0.9641,-0.9611,-0.9553,-0.9516,-0.948,-0.9439,-0.9428,-0.9406,-0.9397,-0.9409,-0.9412,-0.9392,-0.9391,-0.9378,-0.9379,-0.9379,-0.9379,0,-1.0066,-1.0018,-0.9972,-0.9905,-0.9887,-0.9865,-0.9807,-0.9781,-0.9743,-0.9702,-0.969,-0.963,-0.9584,-0.9535,-0.9472,-0.9448,-0.9408,-0.9396,-0.9425,-0.942,-0.9413,-0.9414,-0.9403,-0.9398,-0.9385,-0.9386,-0.9386,0,-1.0072,-1.0049,-0.9978,-0.9953,-0.9922,-0.9883,-0.9853,-0.9801,-0.9772,-0.9711,-0.9692,-0.9642,-0.96,-0.9528,-0.9479,-0.943,-0.9415,-0.9414,-0.9408,-0.942,-0.9413,-0.9414,-0.9411,-0.9417,-0.9417,-0.9417,-0.9418,0,-1.0085,-1.0062,-1.0021,-0.997,-0.9936,-0.9894,-0.985,-0.9832,-0.9771,-0.974,-0.9692,-0.9659,-0.9594,-0.9544,-0.9489,-0.9455,-0.9426,-0.942,-0.9415,-0.9427,-0.9445,-0.9433,-0.943,-0.9421,-0.942,-0.942,-0.942,-0.942,-1.0102,-1.0079,-1.0025,-0.9979,-0.9941,-0.99,-0.9872,-0.983,-0.9789,-0.9731,-0.9703,-0.9655,-0.9602,-0.9524,-0.9491,-0.9451,-0.9443,-0.9436,-0.9434,-0.9433,-0.9435,-0.9452,-0.9441,-0.9441,-0.9441,-0.9441,-0.9441,0,-1.0113,-1.0075,-1.0034,-0.9973,-0.9937,-0.9912,-0.9862,-0.9833,-0.979,-0.9743,-0.9702,-0.9645,-0.9596,-0.9542,-0.949,-0.9468,-0.9453,-0.9456,-0.9457,-0.9449,-0.9447,-0.9456,-0.9469,-0.9469,-0.9469,-0.9469,-0.9469,-0.9469,-1.0114,-1.0072,-1.0041,-0.9979,-0.9941,-0.9893,-0.9866,-0.9828,-0.9789,-0.9728,-0.9687,-0.9652,-0.9601,-0.9544,-0.9498,-0.9483,-0.9465,-0.9472,-0.9453,-0.9452,-0.945,-0.9448,-0.9455,-0.9469,-0.9469,-0.9458,-0.9458,-0.9458]}]]